Regional Weather Roundup
Issued by NWS

Home | Current Version | Previous Version | Graphics & Text | Print | Product List | Glossary On
Versions: 1 2 3 4 5 6 7 8 9 10 11 12 13 14 15 16 17 18 19 20 21 22 23 24 25 26 27 28 29 30 31 32 33 34 35 36 37 38 39 40 41 42 43 44 45 46 47 48 49 50
000
ASUS43 KFSD 261910
RWRSD

WEATHER ROUNDUP FOR SOUTH DAKOTA
NATIONAL WEATHER SERVICE SIOUX FALLS SD
200 PM CDT THU APR 26 2018

NOTE: "FAIR" INDICATES FEW OR NO CLOUDS BELOW 12,000 FEET WITH NO
SIGNIFICANT WEATHER AND/OR OBSTRUCTIONS TO VISIBILITY.


SDZ001>005-009-010-012>017-262000-
NORTHWEST AND NORTH CENTRAL SOUTH DAKOTA

CITY           SKY/WX    TMP DP  RH WIND       PRES   REMARKS
BUFFALO          N/A     62  28  27 W15G23    30.12F
FAITH            N/A     60  28  29 NW15G28   30.16F
MOBRIDGE       SUNNY     64  31  28 W16G22    30.10F
$$

SDZ012>016-024>037-041>051-057-063-072>074-262000-
SOUTHWEST AND SOUTH CENTRAL SOUTH DAKOTA

CITY           SKY/WX    TMP DP  RH WIND       PRES   REMARKS
RAPID CTY ARPT SUNNY     60  30  32 N17G28    30.20F
PIERRE         MOSUNNY   62  26  25 NW23G30   30.15F
CUSTER         SUNNY     51  18  27 VRB5      30.22F
ELLSWORTH AFB  MOSUNNY   59  29  32 N14G23    30.20
PHILIP         MOSUNNY   63  28  26 NW16G22   30.18F
PINE RIDGE     SUNNY     60  29  30 NW14G25   30.22F
SPEARFISH      FAIR      57  30  35 NW12G23   30.22F
WINNER         FAIR      63  26  24 N23G30    30.15F
$$

SDZ004>011-016>023-039-040-262000-
NORTHEAST SOUTH DAKOTA

CITY           SKY/WX    TMP DP  RH WIND       PRES   REMARKS
ABERDEEN       SUNNY     63  29  27 N18G26    30.09F
WATERTOWN      SUNNY     56  28  34 N24G37    30.05S
BROOKINGS      SUNNY     55  30  38 N21G31    30.03F
SISSETON         N/A     59  30  33 N30G37    30.03F
$$

SDZ017-020-022-023-036>040-048>070-262000-
SOUTHEAST SOUTH DAKOTA

CITY           SKY/WX    TMP DP  RH WIND       PRES   REMARKS
SIOUX FALLS    SUNNY     60  31  33 N20G37    30.04R
HURON          SUNNY     60  29  30 N25G37    30.09F
CHAMBERLAIN    SUNNY     62  29  28 N21G26    30.13F
MITCHELL       SUNNY     61  31  32 N21G33    30.10S
YANKTON        SUNNY     60  32  34 N23G33    30.06R
$$

ABBREVIATIONS USED IN REMARKS
   TC - TEMPERATURE IN CELSIUS
  WCI - WIND CHILL INDEX
   HX - HEAT INDEX
  VSB - VISIBILITY





USA.gov is the U.S. government's official web portal to all federal, state and local government web resources and services.